Precipitable_Water
1.36 1.16 1.15 1.15 1.16 1.13 1.13 1.16 1.19 1.24 1.25 1.27 1.25 1.29 1.37 1.44 1.47 1.52 1.56 1.54 1.54 1.50 1.48 1.46 1.46 1.47 1.45 1.43 1.39 1.36 1.35 1.38 1.39 1.36 1.35 1.35 1.39 1.40 1.42 1.45 1.45 1.50 1.54 1.53 1.55 1.50 1.47 1.49 1.52 1.52 1.53 1.43 1.38 1.37 1.40 1.43 1.44 1.42 1.45 1.45 1.36 1.37 1.29 1.18 1.09 1.09 1.24 1.42 1.37 1.36 1.45 1.45 1.39 1.49 1.47 1.52 1.52 1.55 1.60 1.62 1.62 1.59 1.56 1.53 1.53
1.62 1.47 1.29 1.22 1.18 1.17 1.16 1.17 1.16 1.20 1.21 1.25 1.23 1.23 1.25 1.31 1.37 1.43 1.46 1.50 1.52 1.48 1.44 1.43 1.43 1.42 1.40 1.38 1.35 1.33 1.31 1.32 1.36 1.35 1.33 1.32 1.33 1.39 1.37 1.40 1.43 1.44 1.46 1.42 1.44 1.46 1.43 1.40 1.44 1.49 1.55 1.49 1.45 1.38 1.35 1.35 1.37 1.36 1.40 1.43 1.43 1.41 1.44 1.26 1.15 1.07 1.02 1.25 1.26 1.38 1.39 1.48 1.29 1.42 1.37 1.37 1.42 1.51 1.51 1.53 1.57 1.59 1.55 1.54 1.52
1.79 1.70 1.55 1.36 1.26 1.22 1.22 1.21 1.19 1.17 1.17 1.20 1.22 1.21 1.21 1.24 1.30 1.29 1.33 1.38 1.44 1.44 1.42 1.39 1.38 1.37 1.33 1.32 1.30 1.29 1.28 1.27 1.28 1.29 1.28 1.28 1.26 1.28 1.32 1.32 1.34 1.37 1.38 1.36 1.36 1.40 1.38 1.37 1.39 1.45 1.50 1.45 1.44 1.42 1.41 1.35 1.38 1.36 1.37 1.42 1.41 1.45 1.49 1.46 1.30 1.15 1.08 1.07 1.21 1.19 1.23 1.30 1.27 1.26 1.28 1.30 1.35 1.39 1.35 1.37 1.41 1.45 1.49 1.51 1.52
2.02 1.95 1.85 1.69 1.53 1.41 1.33 1.31 1.27 1.21 1.15 1.16 1.17 1.21 1.25 1.25 1.26 1.22 1.23 1.28 1.29 1.35 1.38 1.36 1.33 1.31 1.27 1.25 1.24 1.21 1.19 1.20 1.20 1.22 1.22 1.22 1.21 1.21 1.25 1.25 1.26 1.29 1.32 1.36 1.37 1.34 1.30 1.28 1.33 1.41 1.46 1.41 1.40 1.39 1.38 1.36 1.33 1.34 1.33 1.35 1.36 1.36 1.44 1.47 1.45 1.32 1.24 1.12 1.18 1.21 1.29 1.26 1.28 1.33 1.35 1.34 1.30 1.26 1.29 1.32 1.38 1.38 1.45 1.53 1.54
2.14 2.08 2.04 1.94 1.86 1.80 1.67 1.50 1.37 1.29 1.22 1.19 1.16 1.20 1.24 1.28 1.29 1.24 1.22 1.22 1.24 1.28 1.32 1.34 1.30 1.27 1.21 1.19 1.17 1.14 1.13 1.13 1.11 1.13 1.17 1.21 1.20 1.18 1.18 1.19 1.19 1.18 1.21 1.26 1.32 1.33 1.31 1.27 1.28 1.31 1.36 1.33 1.35 1.34 1.36 1.35 1.37 1.35 1.31 1.35 1.37 1.40 1.42 1.43 1.43 1.43 1.34 1.24 1.24 1.33 1.37 1.35 1.37 1.36 1.39 1.29 1.28 1.31 1.36 1.35 1.37 1.40 1.44 1.52 1.54
2.12 2.08 2.09 2.01 1.98 1.99 2.02 1.95 1.68 1.48 1.35 1.28 1.24 1.21 1.21 1.26 1.28 1.29 1.27 1.22 1.23 1.26 1.27 1.30 1.28 1.24 1.21 1.20 1.18 1.14 1.13 1.12 1.10 1.09 1.10 1.14 1.15 1.16 1.15 1.13 1.11 1.11 1.11 1.12 1.16 1.21 1.22 1.23 1.25 1.25 1.24 1.21 1.21 1.27 1.32 1.35 1.41 1.41 1.39 1.37 1.37 1.40 1.40 1.42 1.42 1.40 1.35 1.29 1.27 1.24 1.31 1.27 1.27 1.29 1.35 1.36 1.29 1.22 1.21 1.27 1.34 1.40 1.40 1.42 1.50
2.19 2.05 1.98 2.05 2.04 1.99 2.07 2.08 2.01 1.88 1.74 1.55 1.42 1.33 1.25 1.22 1.23 1.26 1.30 1.26 1.21 1.19 1.21 1.22 1.24 1.21 1.20 1.19 1.15 1.13 1.12 1.12 1.10 1.08 1.07 1.08 1.08 1.07 1.06 1.06 1.05 1.06 1.07 1.08 1.10 1.11 1.13 1.14 1.15 1.17 1.16 1.16 1.16 1.18 1.22 1.26 1.31 1.33 1.35 1.34 1.35 1.35 1.33 1.34 1.36 1.34 1.31 1.27 1.27 1.27 1.22 1.29 1.29 1.17 1.28 1.38 1.33 1.27 1.14 1.12 1.08 1.19 1.29 1.35 1.37
2.13 2.10 2.11 2.08 2.00 1.96 2.09 2.10 2.07 2.09 2.04 1.88 1.70 1.55 1.40 1.30 1.24 1.22 1.23 1.24 1.23 1.18 1.16 1.16 1.17 1.17 1.16 1.15 1.13 1.13 1.10 1.08 1.07 1.05 1.03 1.02 1.00 1.00 0.99 0.97 0.96 0.97 0.99 1.02 1.05 1.05 1.06 1.08 1.08 1.09 1.09 1.08 1.07 1.08 1.12 1.13 1.20 1.21 1.29 1.30 1.30 1.28 1.24 1.23 1.22 1.20 1.17 1.16 1.15 1.14 1.18 1.14 1.17 1.24 1.28 1.25 1.14 1.12 1.22 1.20 1.05 1.03 1.09 1.29 1.36
2.15 2.11 2.09 2.13 2.08 2.06 2.15 2.07 2.05 2.05 2.07 2.03 1.97 1.87 1.70 1.50 1.36 1.29 1.23 1.21 1.23 1.24 1.24 1.22 1.21 1.20 1.19 1.16 1.14 1.14 1.11 1.08 1.06 1.04 1.00 0.98 0.97 0.93 0.93 0.93 0.91 0.89 0.89 0.92 0.96 0.98 1.00 1.01 1.03 1.04 1.06 1.06 1.06 1.06 1.08 1.15 1.18 1.18 1.24 1.30 1.29 1.27 1.24 1.22 1.19 1.15 1.11 1.07 1.03 1.08 1.07 1.06 1.08 1.07 1.05 1.06 1.04 1.02 1.15 1.20 1.10 1.06 1.11 1.13 1.20
2.18 2.18 2.17 2.20 2.23 2.25 2.22 2.12 2.02 2.00 2.01 2.01 2.03 2.02 1.96 1.84 1.65 1.49 1.42 1.37 1.33 1.30 1.29 1.28 1.27 1.27 1.25 1.24 1.22 1.20 1.16 1.13 1.11 1.09 1.07 1.02 0.99 0.95 0.92 0.90 0.89 0.87 0.86 0.86 0.90 0.93 0.94 0.95 0.97 0.98 1.00 1.01 1.02 1.03 1.04 1.07 1.13 1.17 1.16 1.20 1.21 1.20 1.19 1.16 1.14 1.12 1.08 1.04 1.01 1.00 0.96 0.95 0.96 0.99 0.98 1.01 1.08 1.12 1.08 1.08 1.01 1.01 1.02 1.02 1.06
2.11 2.20 2.23 2.24 2.28 2.25 2.17 2.14 2.10 2.05 2.05 2.06 2.07 2.05 2.02 1.99 1.90 1.80 1.72 1.69 1.63 1.53 1.42 1.35 1.30 1.28 1.29 1.30 1.30 1.29 1.28 1.26 1.21 1.15 1.13 1.13 1.11 1.06 1.02 0.98 0.96 0.93 0.89 0.86 0.84 0.87 0.91 0.95 0.97 0.97 0.99 0.99 1.00 0.99 0.99 1.00 1.02 1.06 1.12 1.17 1.19 1.15 1.10 1.09 1.09 1.10 1.07 1.04 1.02 1.01 0.96 0.91 0.91 0.95 0.95 0.95 0.98 0.97 0.96 0.97 0.96 0.96 0.91 0.86 0.78
2.00 2.12 2.11 2.15 2.24 2.26 2.19 2.14 2.15 2.14 2.13 2.11 2.11 2.11 2.10 2.04 1.96 1.91 1.86 1.80 1.80 1.79 1.67 1.55 1.48 1.42 1.37 1.35 1.33 1.34 1.34 1.34 1.34 1.31 1.26 1.21 1.19 1.17 1.14 1.10 1.07 1.04 1.00 0.93 0.89 0.87 0.88 0.90 0.94 0.96 0.97 0.96 0.95 0.96 0.98 0.99 1.00 1.02 1.04 1.06 1.07 1.13 1.17 1.12 1.06 1.04 1.05 1.01 0.98 0.97 0.94 0.89 0.87 0.91 0.90 0.91 0.88 0.92 0.93 0.93 0.88 0.85 0.84 0.85 0.89
1.88 1.95 1.97 2.05 2.16 2.18 2.19 2.16 2.14 2.12 2.13 2.15 2.14 2.12 2.11 2.09 2.03 1.95 1.89 1.90 1.87 1.78 1.75 1.72 1.65 1.61 1.54 1.45 1.40 1.40 1.40 1.41 1.40 1.40 1.39 1.35 1.29 1.26 1.22 1.20 1.17 1.14 1.12 1.10 1.03 0.94 0.88 0.85 0.86 0.90 0.93 0.94 0.96 0.96 0.95 0.94 0.96 0.98 0.99 1.00 1.02 1.03 1.05 1.11 1.17 1.12 1.09 1.04 0.98 0.95 0.94 0.92 0.88 0.86 0.91 0.91 1.00 0.91 0.90 0.88 0.89 0.90 0.91 0.88 0.88
1.83 1.82 1.88 1.93 2.01 2.08 2.12 2.14 2.13 2.14 2.16 2.18 2.20 2.19 2.15 2.09 2.07 2.04 1.97 1.94 1.91 1.87 1.81 1.78 1.76 1.70 1.65 1.62 1.59 1.57 1.49 1.45 1.44 1.42 1.40 1.40 1.38 1.34 1.29 1.25 1.24 1.23 1.22 1.21 1.21 1.18 1.14 1.07 0.98 0.92 0.93 0.95 0.97 0.96 0.95 0.94 0.92 0.92 0.90 0.90 0.88 0.88 0.90 0.95 0.99 1.05 1.11 1.07 1.02 0.93 0.94 1.01 0.91 0.90 0.95 1.06 1.01 0.94 0.93 0.90 0.95 0.96 0.95 0.92 1.00
1.68 1.73 1.76 1.83 1.91 1.98 1.98 2.01 2.06 2.10 2.14 2.17 2.16 2.14 2.11 2.08 2.06 2.06 2.03 1.97 1.91 1.91 1.92 1.85 1.81 1.78 1.74 1.69 1.65 1.63 1.63 1.59 1.50 1.45 1.42 1.39 1.36 1.36 1.33 1.29 1.26 1.25 1.27 1.29 1.30 1.29 1.27 1.24 1.19 1.13 1.11 1.11 1.14 1.14 1.10 1.07 1.03 0.99 0.95 0.93 0.94 0.95 0.96 0.96 0.96 0.97 0.99 1.03 1.04 1.03 1.02 1.05 1.04 1.03 1.06 1.13 1.14 1.12 1.12 1.10 1.12 1.10 1.08 1.12 1.10
1.45 1.58 1.63 1.70 1.77 1.86 1.95 1.96 1.97 2.02 2.04 2.08 2.10 2.09 2.10 2.09 2.06 2.10 2.10 2.10 2.07 2.02 1.99 1.96 1.90 1.86 1.84 1.80 1.73 1.66 1.68 1.67 1.64 1.59 1.54 1.47 1.42 1.37 1.33 1.28 1.23 1.20 1.20 1.23 1.26 1.30 1.33 1.32 1.28 1.24 1.22 1.21 1.21 1.23 1.23 1.21 1.14 1.08 1.03 1.03 1.03 1.05 1.07 1.12 1.16 1.19 1.19 1.17 1.15 1.12 1.12 1.13 1.15 1.15 1.17 1.19 1.22 1.25 1.28 1.33 1.31 1.19 1.08 0.99 0.88
1.11 1.29 1.44 1.54 1.61 1.69 1.78 1.85 1.86 1.89 1.97 1.98 1.99 2.01 2.02 2.04 2.07 2.12 2.07 2.07 2.06 2.06 2.03 2.00 1.99 1.95 1.91 1.88 1.81 1.78 1.77 1.76 1.73 1.71 1.72 1.68 1.56 1.46 1.39 1.33 1.28 1.22 1.19 1.22 1.26 1.28 1.29 1.30 1.30 1.28 1.26 1.24 1.25 1.26 1.26 1.26 1.20 1.15 1.11 1.07 1.07 1.06 1.05 1.13 1.21 1.26 1.28 1.28 1.29 1.28 1.27 1.25 1.25 1.25 1.26 1.28 1.27 1.29 1.26 1.16 1.06 1.09 1.02 0.91 0.86
0.91 0.98 1.09 1.24 1.36 1.45 1.54 1.59 1.63 1.70 1.77 1.85 1.91 1.97 2.02 2.03 2.01 2.06 2.04 2.04 2.04 2.08 2.12 2.11 2.10 2.06 1.98 1.91 1.88 1.82 1.85 1.91 1.90 1.84 1.78 1.75 1.73 1.64 1.56 1.47 1.40 1.34 1.27 1.27 1.29 1.30 1.30 1.31 1.32 1.30 1.25 1.22 1.24 1.26 1.27 1.27 1.19 1.15 1.13 1.09 1.06 1.04 1.06 1.15 1.21 1.26 1.32 1.35 1.38 1.39 1.39 1.37 1.35 1.33 1.32 1.30 1.29 1.31 1.21 1.05 1.08 1.12 1.00 0.96 0.86
0.87 0.85 0.91 0.97 1.05 1.20 1.30 1.34 1.38 1.49 1.58 1.66 1.76 1.81 1.88 1.95 2.01 2.03 2.02 2.05 2.08 2.14 2.17 2.15 2.14 2.14 2.10 2.01 1.96 1.91 1.92 2.02 2.07 1.99 1.89 1.83 1.81 1.80 1.77 1.71 1.61 1.56 1.51 1.44 1.41 1.37 1.36 1.37 1.37 1.37 1.34 1.30 1.28 1.26 1.27 1.28 1.22 1.18 1.18 1.17 1.12 1.09 1.14 1.23 1.25 1.26 1.30 1.33 1.36 1.40 1.39 1.42 1.42 1.40 1.37 1.35 1.34 1.35 1.31 1.22 1.21 1.14 1.01 0.97 0.94
0.87 0.85 0.88 0.91 0.92 0.92 0.95 1.03 1.13 1.24 1.36 1.47 1.59 1.67 1.75 1.81 1.85 1.89 1.95 2.03 2.08 2.11 2.12 2.13 2.11 2.13 2.15 2.11 2.06 2.05 2.03 2.06 2.12 2.08 2.02 1.98 1.93 1.89 1.86 1.77 1.69 1.67 1.67 1.61 1.55 1.53 1.52 1.49 1.49 1.49 1.47 1.43 1.39 1.36 1.33 1.33 1.30 1.29 1.31 1.24 1.17 1.11 1.26 1.35 1.37 1.37 1.35 1.35 1.34 1.37 1.36 1.39 1.41 1.42 1.41 1.39 1.38 1.37 1.31 1.28 1.24 1.18 1.08 1.01 0.97
0.86 0.79 0.81 0.84 0.85 0.83 0.82 0.84 0.90 1.02 1.12 1.21 1.34 1.45 1.52 1.62 1.73 1.79 1.82 1.88 1.99 2.03 2.03 2.08 2.10 2.10 2.13 2.13 2.11 2.11 2.14 2.11 2.12 2.14 2.13 2.09 2.05 1.98 1.92 1.87 1.84 1.80 1.77 1.75 1.71 1.64 1.62 1.63 1.66 1.67 1.63 1.59 1.54 1.50 1.46 1.44 1.41 1.37 1.33 1.26 1.24 1.28 1.41 1.39 1.41 1.46 1.42 1.38 1.37 1.36 1.36 1.38 1.38 1.38 1.37 1.36 1.35 1.36 1.35 1.32 1.29 1.24 1.15 1.04 0.98
0.79 0.79 0.81 0.82 0.80 0.80 0.78 0.76 0.73 0.83 0.93 0.96 0.98 1.08 1.26 1.42 1.53 1.69 1.83 1.83 1.77 1.77 1.84 1.91 1.95 2.00 2.07 2.10 2.09 2.08 2.13 2.13 2.09 2.11 2.13 2.12 2.09 2.04 1.96 1.94 1.96 1.91 1.83 1.81 1.80 1.76 1.74 1.76 1.78 1.80 1.77 1.71 1.66 1.63 1.61 1.57 1.53 1.48 1.40 1.39 1.41 1.44 1.46 1.51 1.51 1.48 1.44 1.41 1.38 1.37 1.37 1.37 1.35 1.34 1.34 1.34 1.35 1.37 1.39 1.36 1.33 1.29 1.26 1.20 1.09
0.71 0.74 0.78 0.79 0.80 0.77 0.77 0.75 0.69 0.74 0.80 0.83 0.84 0.86 0.98 1.11 1.27 1.50 1.63 1.71 1.74 1.74 1.73 1.74 1.77 1.81 1.87 1.95 2.01 2.05 2.09 2.12 2.13 2.13 2.15 2.15 2.15 2.12 2.08 2.04 2.06 2.03 1.93 1.85 1.86 1.85 1.88 1.91 1.95 1.98 1.96 1.92 1.84 1.79 1.79 1.79 1.73 1.64 1.58 1.57 1.55 1.55 1.54 1.50 1.49 1.48 1.46 1.45 1.43 1.37 1.39 1.42 1.41 1.38 1.38 1.36 1.40 1.45 1.45 1.44 1.41 1.37 1.32 1.29 1.27
0.70 0.70 0.69 0.69 0.73 0.77 0.75 0.71 0.67 0.68 0.72 0.77 0.82 0.85 0.88 0.92 1.02 1.19 1.36 1.46 1.52 1.54 1.60 1.62 1.62 1.62 1.65 1.73 1.82 1.89 1.98 2.06 2.10 2.12 2.15 2.17 2.18 2.17 2.15 2.11 2.09 2.07 2.06 2.00 2.01 2.01 1.98 1.97 1.97 1.97 1.99 1.99 1.99 1.97 1.93 1.85 1.78 1.74 1.72 1.66 1.62 1.58 1.53 1.48 1.47 1.48 1.49 1.47 1.44 1.42 1.41 1.47 1.50 1.44 1.42 1.49 1.52 1.54 1.53 1.51 1.47 1.46 1.42 1.37 1.35
0.64 0.65 0.66 0.67 0.67 0.70 0.72 0.68 0.65 0.65 0.69 0.76 0.79 0.81 0.82 0.85 0.87 0.94 0.98 1.04 1.11 1.18 1.32 1.43 1.46 1.47 1.48 1.49 1.60 1.74 1.85 1.93 1.99 2.06 2.09 2.12 2.15 2.17 2.18 2.16 2.13 2.10 2.04 2.07 2.12 2.11 2.10 2.10 2.05 2.02 2.00 1.99 1.98 1.97 1.97 1.97 1.95 1.88 1.82 1.77 1.72 1.66 1.60 1.54 1.51 1.51 1.45 1.42 1.45 1.47 1.47 1.51 1.56 1.55 1.59 1.62 1.65 1.67 1.64 1.63 1.63 1.59 1.56 1.50 1.43
0.57 0.59 0.61 0.63 0.65 0.67 0.64 0.64 0.63 0.63 0.65 0.71 0.75 0.80 0.79 0.79 0.80 0.84 0.87 0.89 0.91 0.94 1.02 1.14 1.22 1.28 1.32 1.36 1.41 1.50 1.60 1.67 1.75 1.85 1.96 2.07 2.13 2.17 2.16 2.14 2.14 2.14 2.10 2.07 2.10 2.11 2.10 2.08 2.06 2.03 2.01 2.00 1.97 1.92 1.89 1.92 1.96 1.96 1.93 1.89 1.83 1.75 1.68 1.62 1.58 1.52 1.45 1.46 1.47 1.46 1.49 1.55 1.57 1.63 1.70 1.69 1.61 1.55 1.59 1.55 1.54 1.51 1.52 1.46 1.37
0.46 0.50 0.52 0.55 0.58 0.61 0.62 0.62 0.61 0.60 0.63 0.65 0.67 0.69 0.74 0.75 0.75 0.75 0.75 0.76 0.77 0.81 0.85 0.89 0.95 1.05 1.14 1.24 1.31 1.37 1.40 1.45 1.50 1.57 1.70 1.84 1.95 2.02 2.07 2.10 2.14 2.15 2.14 2.13 2.12 2.12 2.13 2.12 2.11 2.11 2.10 2.09 2.06 2.02 1.96 1.94 1.91 1.90 1.91 1.92 1.88 1.82 1.75 1.67 1.61 1.56 1.52 1.50 1.49 1.51 1.57 1.61 1.65 1.64 1.59 1.60 1.56 1.57 1.62 1.57 1.51 1.46 1.48 1.46 1.38
0.43 0.44 0.47 0.51 0.54 0.57 0.59 0.62 0.63 0.60 0.59 0.61 0.59 0.57 0.61 0.63 0.61 0.62 0.64 0.68 0.70 0.73 0.78 0.79 0.82 0.88 0.95 1.04 1.12 1.19 1.25 1.31 1.37 1.40 1.47 1.57 1.68 1.79 1.88 1.95 2.01 2.06 2.06 2.09 2.11 2.12 2.10 2.10 2.11 2.12 2.12 2.09 2.06 2.01 1.98 1.96 1.94 1.91 1.89 1.89 1.88 1.88 1.84 1.79 1.72 1.66 1.62 1.63 1.61 1.61 1.59 1.59 1.54 1.54 1.59 1.59 1.56 1.58 1.66 1.64 1.59 1.57 1.62 1.63 1.49
0.45 0.43 0.44 0.47 0.49 0.55 0.59 0.60 0.61 0.61 0.60 0.59 0.60 0.59 0.53 0.50 0.49 0.51 0.57 0.66 0.72 0.73 0.72 0.76 0.81 0.85 0.87 0.90 0.94 0.97 1.03 1.12 1.26 1.40 1.43 1.47 1.51 1.57 1.64 1.72 1.80 1.88 1.97 2.02 2.03 2.06 2.05 2.01 1.97 1.97 1.97 1.95 1.94 1.93 1.93 1.94 1.96 2.00 1.97 1.92 1.89 1.87 1.84 1.79 1.71 1.68 1.69 1.67 1.59 1.57 1.54 1.53 1.53 1.60 1.60 1.57 1.56 1.60 1.74 1.71 1.71 1.64 1.66 1.65 1.48
0.47 0.46 0.45 0.44 0.46 0.50 0.54 0.58 0.61 0.62 0.62 0.60 0.59 0.60 0.65 0.62 0.57 0.51 0.51 0.62 0.68 0.73 0.73 0.70 0.74 0.77 0.76 0.79 0.84 0.83 0.88 1.00 1.17 1.28 1.37 1.42 1.47 1.51 1.55 1.60 1.68 1.74 1.79 1.84 1.86 1.83 1.84 1.83 1.84 1.84 1.83 1.84 1.82 1.84 1.88 1.93 1.95 1.96 1.98 1.99 1.96 1.90 1.85 1.82 1.79 1.76 1.76 1.70 1.65 1.61 1.58 1.56 1.52 1.55 1.58 1.57 1.58 1.63 1.70 1.68 1.60 1.66 1.57 1.51 1.44
0.49 0.47 0.46 0.44 0.45 0.49 0.52 0.55 0.59 0.62 0.62 0.62 0.62 0.60 0.59 0.61 0.62 0.63 0.65 0.63 0.62 0.62 0.64 0.67 0.68 0.68 0.64 0.60 0.67 0.78 0.88 0.97 1.05 1.11 1.19 1.28 1.36 1.42 1.46 1.50 1.54 1.57 1.62 1.64 1.65 1.66 1.66 1.65 1.67 1.71 1.75 1.78 1.78 1.80 1.85 1.87 1.90 1.94 1.95 1.97 1.98 1.95 1.91 1.86 1.84 1.85 1.80 1.75 1.72 1.71 1.70 1.66 1.62 1.65 1.65 1.69 1.67 1.63 1.64 1.67 1.66 1.63 1.56 1.50 1.43
0.50 0.49 0.49 0.48 0.47 0.50 0.53 0.56 0.58 0.60 0.61 0.62 0.62 0.60 0.58 0.55 0.57 0.65 0.67 0.64 0.62 0.59 0.57 0.56 0.55 0.54 0.56 0.62 0.69 0.73 0.80 0.86 0.91 0.94 0.99 1.06 1.14 1.23 1.32 1.40 1.45 1.48 1.50 1.52 1.49 1.53 1.60 1.60 1.62 1.63 1.67 1.66 1.70 1.77 1.80 1.82 1.87 1.93 1.97 1.94 1.92 1.95 1.94 1.91 1.95 1.92 1.86 1.81 1.74 1.72 1.73 1.74 1.75 1.76 1.79 1.81 1.79 1.69 1.62 1.62 1.65 1.62 1.55 1.52 1.47
0.55 0.55 0.55 0.54 0.53 0.51 0.54 0.58 0.61 0.64 0.63 0.62 0.61 0.61 0.57 0.54 0.51 0.54 0.63 0.69 0.68 0.64 0.60 0.56 0.54 0.53 0.56 0.61 0.68 0.72 0.74 0.75 0.78 0.85 0.90 0.95 1.00 1.06 1.14 1.21 1.28 1.35 1.39 1.39 1.39 1.42 1.50 1.55 1.58 1.63 1.65 1.62 1.64 1.68 1.73 1.78 1.81 1.89 1.97 1.96 1.91 1.92 1.96 2.02 2.07 2.00 1.94 1.89 1.84 1.77 1.75 1.75 1.78 1.82 1.83 1.82 1.78 1.68 1.67 1.64 1.65 1.63 1.57 1.49 1.47
0.60 0.60 0.61 0.61 0.61 0.59 0.59 0.61 0.62 0.63 0.65 0.63 0.61 0.58 0.57 0.55 0.53 0.53 0.52 0.53 0.57 0.60 0.62 0.60 0.58 0.58 0.57 0.58 0.61 0.67 0.71 0.75 0.79 0.82 0.85 0.89 0.93 0.98 0.99 1.03 1.11 1.18 1.21 1.23 1.31 1.34 1.42 1.47 1.53 1.59 1.64 1.66 1.66 1.65 1.65 1.70 1.78 1.84 1.92 1.98 1.99 1.98 1.98 2.03 2.02 2.00 1.99 1.95 1.89 1.83 1.79 1.76 1.76 1.74 1.74 1.82 1.86 1.82 1.73 1.70 1.69 1.63 1.56 1.54 1.49
0.62 0.63 0.64 0.65 0.65 0.65 0.63 0.61 0.60 0.61 0.62 0.62 0.60 0.57 0.55 0.55 0.56 0.55 0.53 0.50 0.48 0.48 0.49 0.54 0.59 0.61 0.60 0.62 0.67 0.69 0.70 0.73 0.76 0.80 0.82 0.83 0.86 0.89 0.92 0.90 0.89 0.97 1.05 1.14 1.21 1.28 1.33 1.37 1.40 1.46 1.53 1.56 1.60 1.61 1.60 1.64 1.70 1.76 1.84 1.90 1.94 1.94 1.94 1.95 1.95 1.98 1.98 1.98 1.96 1.89 1.85 1.82 1.79 1.77 1.77 1.78 1.79 1.74 1.70 1.71 1.72 1.68 1.60 1.58 1.54
0.62 0.63 0.64 0.64 0.64 0.65 0.65 0.63 0.62 0.60 0.60 0.61 0.62 0.60 0.59 0.58 0.56 0.56 0.56 0.55 0.52 0.50 0.51 0.54 0.58 0.60 0.62 0.67 0.74 0.71 0.69 0.69 0.70 0.73 0.76 0.80 0.81 0.82 0.75 0.76 0.81 0.87 0.92 1.01 1.06 1.12 1.19 1.25 1.29 1.32 1.38 1.44 1.50 1.50 1.52 1.52 1.57 1.65 1.77 1.86 1.90 1.91 1.90 1.90 1.92 1.93 1.95 1.96 1.95 1.95 1.96 1.95 1.90 1.83 1.81 1.80 1.80 1.79 1.76 1.73 1.71 1.70 1.67 1.60 1.57
0.60 0.62 0.62 0.64 0.64 0.64 0.65 0.65 0.65 0.65 0.65 0.65 0.65 0.64 0.63 0.63 0.62 0.61 0.58 0.56 0.54 0.55 0.55 0.56 0.57 0.58 0.62 0.65 0.69 0.69 0.70 0.70 0.69 0.69 0.70 0.72 0.76 0.77 0.76 0.77 0.78 0.80 0.82 0.85 0.89 0.94 0.98 1.05 1.12 1.14 1.17 1.21 1.28 1.35 1.41 1.46 1.54 1.59 1.65 1.73 1.80 1.84 1.89 1.92 1.94 1.95 1.95 1.94 1.95 1.95 1.94 1.95 1.97 1.92 1.83 1.74 1.74 1.77 1.77 1.76 1.75 1.71 1.67 1.60 1.59
0.60 0.59 0.60 0.62 0.63 0.63 0.63 0.63 0.64 0.66 0.66 0.66 0.66 0.65 0.64 0.63 0.63 0.62 0.60 0.59 0.59 0.58 0.56 0.57 0.57 0.56 0.54 0.58 0.68 0.67 0.65 0.66 0.67 0.67 0.67 0.68 0.69 0.70 0.72 0.72 0.72 0.71 0.73 0.77 0.80 0.82 0.85 0.92 0.98 1.01 1.04 1.06 1.07 1.11 1.17 1.27 1.38 1.45 1.55 1.67 1.72 1.73 1.77 1.82 1.90 1.94 1.97 1.98 1.99 2.00 2.03 2.01 1.95 1.90 1.90 1.86 1.83 1.84 1.86 1.84 1.76 1.70 1.68 1.64 1.58
0.60 0.60 0.59 0.60 0.60 0.60 0.61 0.62 0.64 0.63 0.63 0.65 0.65 0.64 0.63 0.63 0.62 0.61 0.61 0.60 0.60 0.59 0.59 0.59 0.58 0.58 0.59 0.63 0.63 0.66 0.62 0.59 0.57 0.56 0.58 0.61 0.63 0.64 0.63 0.63 0.63 0.65 0.68 0.71 0.74 0.77 0.78 0.81 0.86 0.92 0.96 0.98 1.00 1.03 1.06 1.09 1.18 1.29 1.40 1.50 1.61 1.68 1.70 1.69 1.72 1.83 1.91 1.98 2.04 2.07 2.07 2.06 2.00 2.01 1.99 1.92 1.86 1.86 1.88 1.89 1.81 1.73 1.68 1.63 1.62
0.57 0.56 0.57 0.58 0.58 0.59 0.60 0.61 0.63 0.62 0.63 0.61 0.61 0.62 0.62 0.62 0.61 0.61 0.61 0.60 0.59 0.60 0.60 0.60 0.60 0.61 0.64 0.65 0.64 0.63 0.57 0.55 0.56 0.58 0.59 0.59 0.59 0.59 0.59 0.57 0.57 0.59 0.60 0.63 0.67 0.70 0.73 0.76 0.80 0.82 0.87 0.91 0.94 0.97 1.01 1.03 1.06 1.12 1.21 1.31 1.39 1.48 1.59 1.67 1.72 1.73 1.76 1.85 1.92 2.00 2.06 2.04 2.04 2.06 2.01 1.96 1.93 1.94 1.93 1.88 1.81 1.75 1.73 1.71 1.72
0.55 0.55 0.56 0.56 0.55 0.56 0.57 0.59 0.60 0.61 0.62 0.61 0.61 0.60 0.60 0.61 0.63 0.63 0.62 0.60 0.59 0.59 0.59 0.60 0.61 0.64 0.67 0.67 0.68 0.67 0.63 0.60 0.60 0.59 0.60 0.60 0.59 0.59 0.59 0.58 0.57 0.56 0.57 0.59 0.61 0.65 0.68 0.71 0.74 0.77 0.80 0.84 0.89 0.92 0.94 0.97 1.00 1.03 1.07 1.11 1.17 1.24 1.34 1.45 1.55 1.62 1.70 1.74 1.77 1.82 1.90 1.98 2.03 2.04 1.95 1.92 1.92 1.91 1.88 1.85 1.81 1.80 1.80 1.78 1.75
0.53 0.52 0.51 0.51 0.52 0.53 0.54 0.55 0.57 0.58 0.58 0.58 0.58 0.58 0.59 0.59 0.60 0.60 0.60 0.59 0.59 0.59 0.59 0.60 0.62 0.65 0.67 0.68 0.69 0.70 0.67 0.66 0.65 0.63 0.62 0.61 0.60 0.60 0.60 0.60 0.60 0.58 0.58 0.58 0.59 0.60 0.62 0.65 0.69 0.72 0.75 0.78 0.82 0.86 0.89 0.90 0.93 0.95 0.99 1.02 1.05 1.10 1.14 1.20 1.27 1.33 1.40 1.48 1.57 1.67 1.73 1.80 1.86 1.89 1.90 1.92 1.94 1.95 1.92 1.88 1.84 1.83 1.83 1.83 1.84
0.52 0.51 0.50 0.50 0.49 0.50 0.51 0.51 0.53 0.53 0.54 0.54 0.54 0.56 0.57 0.58 0.57 0.58 0.58 0.58 0.58 0.58 0.58 0.57 0.59 0.63 0.64 0.67 0.69 0.70 0.68 0.67 0.66 0.64 0.63 0.61 0.61 0.60 0.59 0.60 0.61 0.61 0.61 0.61 0.61 0.61 0.61 0.61 0.63 0.67 0.70 0.74 0.78 0.81 0.83 0.86 0.89 0.91 0.93 0.95 0.98 1.01 1.05 1.08 1.12 1.16 1.22 1.28 1.34 1.43 1.51 1.60 1.67 1.73 1.80 1.87 1.92 1.94 1.96 1.96 1.95 1.93 1.91 1.90 1.87
0.50 0.49 0.49 0.49 0.49 0.50 0.50 0.50 0.50 0.51 0.52 0.53 0.54 0.55 0.56 0.56 0.56 0.56 0.56 0.56 0.56 0.58 0.58 0.59 0.61 0.62 0.64 0.67 0.68 0.67 0.67 0.67 0.66 0.65 0.63 0.62 0.62 0.61 0.61 0.62 0.62 0.62 0.62 0.62 0.62 0.62 0.61 0.60 0.61 0.64 0.67 0.71 0.76 0.80 0.83 0.85 0.87 0.88 0.89 0.90 0.91 0.94 0.97 0.99 1.01 1.04 1.07 1.10 1.14 1.21 1.30 1.39 1.47 1.54 1.60 1.69 1.77 1.83 1.88 1.92 1.93 1.92 1.92 1.92 1.92
0.47 0.46 0.46 0.45 0.46 0.47 0.48 0.50 0.51 0.52 0.54 0.55 0.54 0.55 0.57 0.57 0.57 0.57 0.57 0.57 0.59 0.60 0.61 0.62 0.63 0.63 0.64 0.65 0.66 0.66 0.65 0.65 0.65 0.64 0.63 0.62 0.62 0.63 0.64 0.64 0.64 0.63 0.62 0.62 0.62 0.62 0.61 0.61 0.61 0.61 0.62 0.66 0.71 0.75 0.79 0.82 0.85 0.87 0.89 0.89 0.88 0.88 0.90 0.93 0.97 1.01 1.03 1.03 1.04 1.07 1.11 1.18 1.26 1.34 1.40 1.47 1.54 1.60 1.67 1.75 1.80 1.83 1.84 1.84 1.86
0.44 0.44 0.43 0.43 0.44 0.46 0.48 0.50 0.52 0.53 0.53 0.53 0.53 0.55 0.57 0.58 0.59 0.59 0.60 0.61 0.61 0.61 0.61 0.62 0.64 0.65 0.66 0.66 0.68 0.67 0.66 0.64 0.63 0.63 0.63 0.63 0.63 0.64 0.65 0.66 0.65 0.64 0.63 0.62 0.63 0.62 0.62 0.62 0.61 0.61 0.62 0.63 0.66 0.70 0.75 0.80 0.84 0.85 0.86 0.87 0.88 0.89 0.90 0.92 0.94 0.96 0.98 1.00 1.00 1.02 1.04 1.07 1.12 1.19 1.26 1.32 1.37 1.44 1.47 1.52 1.60 1.65 1.68 1.70 1.72
0.43 0.44 0.44 0.45 0.46 0.48 0.49 0.50 0.50 0.51 0.51 0.52 0.54 0.54 0.55 0.57 0.59 0.60 0.61 0.61 0.62 0.63 0.64 0.64 0.65 0.65 0.66 0.67 0.67 0.67 0.67 0.66 0.64 0.64 0.63 0.63 0.63 0.64 0.64 0.64 0.63 0.63 0.63 0.64 0.64 0.63 0.62 0.62 0.63 0.63 0.64 0.65 0.66 0.68 0.71 0.74 0.79 0.81 0.83 0.84 0.86 0.88 0.90 0.90 0.91 0.92 0.94 0.97 0.99 0.98 1.00 1.02 1.05 1.09 1.14 1.21 1.25 1.29 1.31 1.35 1.39 1.43 1.48 1.53 1.54
0.47 0.47 0.48 0.48 0.49 0.48 0.48 0.49 0.49 0.51 0.52 0.53 0.54 0.56 0.57 0.57 0.58 0.59 0.60 0.61 0.61 0.62 0.63 0.64 0.64 0.64 0.65 0.66 0.67 0.67 0.67 0.66 0.66 0.65 0.64 0.63 0.64 0.64 0.64 0.63 0.63 0.62 0.63 0.64 0.64 0.64 0.64 0.64 0.64 0.64 0.64 0.64 0.64 0.65 0.67 0.69 0.72 0.75 0.79 0.81 0.83 0.85 0.87 0.88 0.88 0.89 0.91 0.94 0.96 0.98 0.99 0.99 1.02 1.05 1.09 1.13 1.17 1.23 1.25 1.26 1.30 1.33 1.36 1.39 1.42
0.47 0.47 0.47 0.47 0.47 0.47 0.47 0.48 0.48 0.48 0.49 0.50 0.51 0.53 0.55 0.56 0.57 0.59 0.60 0.60 0.61 0.62 0.63 0.64 0.64 0.65 0.65 0.66 0.67 0.67 0.68 0.67 0.66 0.64 0.64 0.64 0.64 0.65 0.65 0.65 0.64 0.64 0.63 0.62 0.64 0.65 0.65 0.64 0.63 0.62 0.63 0.63 0.64 0.64 0.64 0.66 0.67 0.69 0.72 0.77 0.79 0.81 0.83 0.84 0.85 0.87 0.90 0.91 0.94 0.97 0.99 0.99 1.00 1.02 1.06 1.09 1.12 1.15 1.18 1.23 1.26 1.27 1.28 1.29 1.30
0.45 0.45 0.45 0.45 0.46 0.46 0.47 0.47 0.47 0.47 0.48 0.49 0.48 0.49 0.51 0.52 0.53 0.55 0.58 0.59 0.61 0.62 0.64 0.65 0.65 0.65 0.66 0.66 0.66 0.66 0.66 0.65 0.65 0.66 0.66 0.66 0.65 0.65 0.65 0.65 0.65 0.64 0.64 0.63 0.63 0.64 0.64 0.64 0.62 0.62 0.62 0.63 0.63 0.64 0.64 0.65 0.66 0.68 0.69 0.72 0.76 0.79 0.81 0.82 0.84 0.87 0.90 0.92 0.94 0.96 0.98 0.99 1.00 1.01 1.03 1.06 1.08 1.10 1.11 1.13 1.18 1.23 1.26 1.26 1.25
0.44 0.45 0.44 0.44 0.44 0.44 0.43 0.43 0.43 0.44 0.45 0.45 0.46 0.47 0.47 0.49 0.51 0.53 0.56 0.58 0.59 0.60 0.62 0.63 0.64 0.65 0.66 0.66 0.67 0.67 0.67 0.67 0.68 0.68 0.68 0.67 0.66 0.65 0.64 0.64 0.65 0.65 0.64 0.64 0.63 0.63 0.63 0.63 0.62 0.62 0.62 0.63 0.63 0.63 0.63 0.64 0.66 0.68 0.70 0.72 0.74 0.75 0.77 0.80 0.83 0.87 0.91 0.93 0.94 0.95 0.96 0.98 0.99 1.00 1.02 1.05 1.07 1.08 1.09 1.11 1.13 1.16 1.20 1.24 1.28
Wind_Speed
20 20 20 20 20 20 19 19 19 18 18 17 17 16 15 15 14 13 13 12 12 11 11 10 10 10 9 9 9 9 8 8 8 7 7 7 6 6 6 6 6 6 6 6 7 7 7 7 7 8 8 8 9 9 9 8 8 8 8 7 8 9 9 10 11 11 11 11 11 10 10 11 11 10 10 10 11 11 11 12 13 14 14 14 14
20 20 21 21 21 21 20 20 19 19 19 18 18 17 17 16 15 14 14 13 13 13 12 12 11 10 10 10 9 9 9 9 8 8 8 8 7 7 7 7 7 6 6 7 7 7 7 8 8 8 8 8 8 8 9 9 9 9 9 8 9 9 9 10 10 11 12 12 12 12 11 11 11 11 11 12 12 12 13 14 14 15 15 15 15
21 21 21 22 22 22 21 20 20 19 19 19 19 18 18 17 16 16 15 14 14 14 13 13 12 12 11 11 10 10 9 9 9 9 9 9 9 8 8 8 8 7 7 7 7 7 7 8 8 8 8 8 8 8 8 9 9 10 10 9 9 10 10 10 11 11 12 12 13 13 12 12 12 12 12 13 13 14 14 14 15 15 15 15 15
21 22 23 23 22 22 22 21 21 20 19 19 19 19 18 18 17 17 16 15 15 15 14 14 13 13 13 12 11 11 11 10 10 10 10 10 10 10 9 9 9 8 8 8 7 7 7 8 8 8 8 8 8 8 8 9 9 10 10 10 10 10 10 10 11 11 12 12 12 13 13 13 13 13 13 14 14 14 14 14 15 15 15 15 15
22 22 23 23 23 23 22 22 21 21 20 19 19 19 19 18 18 18 17 17 16 16 15 15 14 14 14 13 13 12 12 12 12 11 11 11 10 10 10 10 10 10 9 9 9 8 8 9 8 8 8 9 9 9 9 9 9 10 10 11 11 11 10 10 11 11 12 12 13 13 13 13 13 13 13 14 14 14 14 14 14 15 15 15 15
23 23 23 23 23 22 21 21 21 20 20 19 19 19 19 19 19 18 18 18 17 17 17 16 16 16 15 15 14 13 13 13 13 12 12 12 11 11 11 11 11 11 11 10 10 10 10 10 9 9 9 10 10 9 9 10 10 10 10 10 10 11 11 11 11 11 11 12 12 13 13 14 14 14 14 14 14 14 15 15 14 14 15 16 16
22 23 23 23 23 22 22 22 21 20 20 19 19 19 19 19 19 19 19 19 19 18 18 18 18 17 17 16 15 15 14 14 14 13 13 13 12 12 12 12 12 12 12 11 11 11 11 10 10 10 10 10 10 10 10 10 10 10 10 10 10 10 11 11 11 11 12 12 12 13 13 13 14 14 14 14 15 15 15 15 15 15 15 16 16
20 22 23 22 22 22 23 23 21 20 20 19 19 18 18 19 19 19 19 19 20 19 19 19 19 19 18 18 17 16 16 15 15 15 14 14 14 14 13 13 13 13 13 13 12 12 12 12 11 11 11 11 11 11 11 11 10 10 10 10 10 11 11 11 11 11 12 12 13 13 13 13 14 14 14 15 15 15 15 15 16 16 16 16 16
18 19 20 21 21 21 21 21 21 21 21 20 20 19 19 19 19 19 19 19 20 20 20 20 20 20 20 20 19 18 18 17 16 16 16 15 15 15 15 15 14 14 14 14 14 14 14 13 13 13 13 13 13 13 12 12 12 12 12 12 12 12 12 13 12 12 13 13 13 14 14 14 14 15 15 15 15 15 15 15 16 17 17 17 17
14 15 16 18 19 19 19 19 20 21 21 21 21 20 20 20 20 19 19 19 19 20 20 21 21 21 21 21 21 20 20 19 18 18 17 17 16 16 16 16 16 16 16 16 15 15 15 15 15 15 15 15 15 14 14 14 14 14 14 14 14 14 14 14 14 14 14 14 15 15 15 15 15 16 16 16 16 16 16 17 17 17 18 18 17
12 13 14 15 16 17 17 18 19 19 20 21 21 21 21 21 21 21 20 20 19 19 20 21 21 21 21 21 22 21 21 21 20 20 19 19 18 17 17 17 17 17 17 17 17 17 17 16 16 16 16 16 16 16 16 16 16 16 16 16 16 16 16 16 16 16 16 16 16 16 16 16 16 16 16 17 17 17 18 18 18 18 18 18 18
10 11 12 12 13 15 16 16 17 18 19 19 20 21 21 21 22 22 22 21 21 20 20 20 21 22 22 22 22 22 22 22 22 22 21 21 20 20 19 18 18 18 18 18 18 18 18 18 18 18 17 17 17 17 17 17 17 17 17 18 17 17 18 18 18 17 17 17 17 17 17 17 17 17 17 18 18 18 18 19 19 19 19 19 18
10 10 11 11 12 13 14 15 16 17 18 18 19 20 21 21 22 22 22 22 22 22 21 21 21 22 22 22 22 22 22 22 23 23 23 23 22 21 21 21 20 19 19 19 19 19 19 19 19 19 19 19 19 18 18 18 18 18 18 19 19 19 19 19 19 19 19 19 19 19 18 18 18 18 18 18 19 19 19 20 20 20 20 20 20
11 11 11 11 12 12 13 14 15 15 16 17 18 19 20 21 21 22 23 23 23 23 23 23 22 22 22 23 23 23 22 23 23 23 23 24 24 23 22 22 22 21 21 20 20 20 19 19 19 19 19 19 19 19 19 19 19 20 20 20 20 20 20 20 20 20 20 20 20 21 20 20 20 20 20 20 20 20 20 21 21 21 21 22 22
12 11 11 11 12 12 12 13 14 15 15 16 17 18 19 20 21 21 22 23 24 24 24 24 24 24 24 24 24 24 23 23 23 23 24 24 25 24 24 23 23 22 22 22 22 21 21 20 20 20 20 20 20 20 20 21 21 21 21 21 21 21 21 21 21 21 21 21 22 22 22 22 22 22 22 22 22 22 22 22 22 22 22 22 22
11 12 12 12 12 12 12 12 13 14 15 16 16 17 18 19 20 21 22 22 23 24 25 25 25 25 25 25 25 25 25 25 24 24 24 25 25 25 24 24 24 23 23 23 23 23 22 22 22 22 22 22 22 22 22 22 22 22 22 23 22 22 22 22 23 23 23 23 23 23 24 24 24 24 24 24 24 23 23 23 22 22 23 23 23
11 11 12 12 12 13 13 13 13 14 15 15 16 17 18 19 20 21 22 22 23 23 24 25 26 26 26 26 26 26 27 27 26 26 25 25 25 25 25 25 25 25 25 25 24 24 24 24 24 24 24 24 24 24 24 24 24 24 24 24 24 24 24 24 24 25 25 26 26 26 26 26 26 26 26 26 25 25 24 24 24 23 23 23 23
11 11 12 12 13 13 13 13 13 14 15 15 15 16 17 18 19 20 21 22 23 23 24 25 26 26 26 26 27 27 27 28 28 28 27 26 25 26 26 26 26 26 26 26 26 26 26 26 26 26 26 26 27 26 26 25 25 25 25 25 25 26 26 25 25 25 26 27 27 27 27 27 28 27 27 27 27 26 25 25 25 24 24 24 23
13 13 13 13 13 13 13 13 13 14 14 15 15 16 17 18 18 19 20 21 22 23 24 24 25 26 26 26 27 27 27 28 28 29 29 28 28 27 27 27 27 27 27 27 27 27 27 28 28 28 28 28 28 28 28 27 27 27 27 26 27 27 27 26 26 26 27 27 27 27 28 28 28 28 28 28 28 27 26 26 26 25 25 25 24
15 15 15 15 15 14 14 14 14 14 15 15 15 15 16 16 17 18 18 20 21 22 22 23 24 24 25 26 26 26 27 27 28 28 29 29 29 28 28 28 29 29 29 28 28 28 28 28 29 29 29 30 30 30 29 29 28 28 28 28 28 28 28 27 27 27 28 28 28 28 28 28 28 28 29 29 29 28 28 27 27 26 26 26 26
18 18 18 17 17 16 16 16 16 16 16 16 16 16 16 16 16 16 16 17 19 20 20 21 22 22 23 24 24 25 26 27 27 28 28 29 29 28 28 28 29 30 30 30 29 29 29 29 29 29 30 30 30 30 30 30 29 29 29 29 29 29 29 28 28 29 28 28 29 28 28 28 28 29 29 29 29 29 29 28 27 27 27 27 27
20 20 20 20 20 19 19 19 18 18 18 18 18 18 17 17 17 17 17 17 17 18 19 20 20 21 22 22 23 24 25 26 27 27 28 28 29 29 29 28 29 29 30 30 30 30 29 29 29 29 29 29 30 30 30 30 30 29 29 29 30 30 30 29 29 29 29 29 29 29 29 29 29 29 29 29 29 29 29 29 28 28 28 27 27
23 22 22 22 22 22 22 21 21 21 21 20 20 20 19 18 18 18 17 17 17 17 18 19 20 21 22 23 23 23 24 25 26 27 27 28 29 29 30 30 30 29 29 30 30 30 30 29 28 28 28 28 28 29 29 30 30 30 30 30 30 30 30 29 29 29 29 29 29 30 30 30 30 30 30 30 29 29 29 29 29 28 28 28 27
25 25 24 24 25 25 24 24 24 24 23 23 22 22 21 21 20 20 20 19 19 19 19 20 20 21 22 22 23 23 23 24 25 26 27 28 28 29 30 30 31 30 30 29 30 30 30 30 30 29 29 29 29 29 29 30 30 30 31 31 31 30 30 30 30 30 30 30 30 30 31 31 31 31 31 30 30 29 29 29 28 28 28 28 27
27 27 27 27 26 26 27 26 26 26 25 25 25 24 24 24 23 23 23 23 22 22 22 22 22 22 22 23 23 22 22 23 23 25 26 27 27 28 28 29 30 30 30 30 30 29 30 30 30 31 31 31 31 31 31 31 31 31 32 32 31 31 31 31 31 31 31 31 32 32 32 32 32 32 32 31 31 30 30 29 29 29 28 28 27
28 28 28 28 28 28 28 28 28 28 27 27 27 26 26 26 26 26 26 25 25 25 25 25 25 24 24 24 24 24 23 23 23 24 25 26 26 27 27 28 28 29 29 30 30 30 29 30 30 30 31 31 31 32 32 32 32 33 33 32 32 32 32 32 32 32 33 33 33 33 33 33 33 32 32 32 32 32 31 31 30 29 29 28 27
29 29 29 29 29 29 29 29 29 29 28 28 28 28 28 28 28 28 28 27 27 27 27 27 27 26 26 26 26 26 26 25 25 25 25 26 26 27 27 27 27 28 28 29 30 29 29 30 30 30 30 31 31 32 32 33 33 33 34 34 34 34 34 34 34 35 35 35 35 34 34 34 33 33 33 33 32 32 32 32 31 30 29 28 27
29 29 30 30 30 29 29 29 29 30 30 29 29 29 29 30 30 30 30 30 30 29 29 28 28 28 28 28 28 27 27 28 27 27 27 27 27 27 27 27 28 28 28 29 30 30 30 30 30 30 30 30 31 32 32 32 32 33 33 34 34 34 35 35 35 35 35 35 35 34 34 34 34 34 34 33 33 33 32 31 31 30 29 28 28
29 29 30 30 30 30 29 29 29 30 30 30 30 30 30 31 31 31 31 31 31 31 30 30 29 30 30 30 29 29 29 29 29 30 30 30 29 29 29 29 29 29 29 29 30 30 30 30 30 30 30 30 31 31 31 31 31 32 32 32 33 33 34 34 34 34 34 34 33 33 33 34 34 34 34 34 34 33 32 32 31 31 30 30 29
30 30 30 30 30 30 30 30 30 30 30 30 31 31 31 31 31 31 31 32 31 31 31 32 32 32 32 32 32 32 32 32 32 32 31 31 31 32 31 31 31 30 31 31 31 31 31 31 31 31 31 31 31 31 31 31 31 31 31 31 32 32 33 34 34 34 33 33 32 32 32 33 33 34 34 34 34 33 33 32 32 31 31 31 30
30 30 30 30 31 31 30 30 30 30 31 31 31 32 32 32 32 32 32 32 32 32 32 33 33 33 34 34 34 34 34 34 34 33 33 33 33 33 33 33 33 33 33 33 33 32 33 33 33 33 33 33 33 33 32 32 32 32 32 32 31 32 32 33 34 34 33 32 32 32 32 32 32 32 32 33 33 33 33 32 32 31 32 32 31
30 31 31 31 31 31 31 31 31 31 31 31 31 32 32 32 32 32 32 32 33 33 34 34 34 34 35 34 34 35 35 36 36 35 35 35 34 34 34 35 35 35 34 34 34 34 34 34 34 34 34 34 34 34 34 34 33 33 33 33 32 32 32 33 33 33 33 33 32 32 31 31 32 32 32 32 33 33 33 32 32 32 32 32 32
30 31 31 31 31 32 32 31 31 31 31 31 31 32 32 32 32 33 33 33 34 34 35 35 35 35 35 35 35 35 36 37 37 37 37 36 35 35 35 35 35 35 35 35 35 35 35 35 35 35 35 35 35 35 35 35 34 34 34 34 33 33 33 33 33 33 33 33 33 33 32 32 32 32 32 32 32 32 33 33 32 33 33 33 33
30 31 31 31 31 31 31 31 31 30 30 31 31 32 32 32 32 33 33 34 35 35 35 36 36 36 36 36 37 36 36 36 36 36 37 37 37 37 37 36 36 36 35 35 36 36 36 36 36 36 36 35 35 35 35 34 34 34 34 34 34 34 34 34 33 33 33 34 34 34 33 33 33 32 32 32 32 33 33 33 33 33 34 34 34
31 31 31 31 31 31 31 31 31 31 31 32 32 32 33 33 33 34 34 34 35 35 36 36 36 37 37 37 37 37 37 37 37 37 37 37 38 38 38 38 37 37 36 36 36 36 36 36 36 36 36 36 35 34 34 34 33 33 34 34 34 34 35 35 35 34 34 34 34 35 34 34 34 33 33 33 34 34 34 34 34 35 35 35 35
31 31 31 31 31 31 32 32 32 32 32 33 33 33 34 34 34 35 35 35 36 36 36 37 37 37 38 38 38 38 39 39 39 39 39 39 39 39 39 39 39 38 38 38 38 37 37 37 36 36 36 36 36 35 35 34 34 34 34 34 34 34 35 35 35 35 35 35 35 35 35 35 35 35 35 35 35 35 35 35 36 36 36 36 36
31 31 31 31 31 32 32 32 33 33 33 33 34 34 35 35 35 35 36 36 37 37 37 37 37 38 38 38 39 39 40 41 41 41 41 41 41 41 40 40 40 40 40 40 40 40 39 39 39 38 38 37 37 37 37 36 36 35 35 35 34 34 34 35 35 36 36 36 36 36 36 35 35 35 36 36 36 35 35 36 36 37 37 37 37
31 31 31 32 32 32 33 33 33 33 34 34 34 35 35 35 36 36 37 37 37 38 38 38 38 38 39 39 39 40 41 42 42 42 43 43 43 43 43 43 42 42 42 42 42 42 41 41 41 41 40 40 39 39 38 38 38 37 37 36 36 35 35 35 35 35 36 37 37 37 37 36 35 35 36 36 37 37 37 37 37 37 37 37 37
31 31 32 32 33 33 33 34 34 34 35 35 35 35 36 36 36 37 37 38 38 39 39 39 39 40 40 40 41 41 42 42 42 43 43 44 44 45 45 45 45 45 44 44 44 44 43 43 42 42 42 41 41 40 40 39 39 39 39 39 38 37 36 36 36 36 36 36 36 37 37 36 35 35 36 36 37 37 37 37 37 37 37 37 37
32 32 33 33 34 34 34 35 35 36 36 36 36 36 36 37 37 37 38 38 39 39 40 40 41 41 42 42 42 43 43 43 43 43 44 44 45 45 46 46 47 47 47 47 46 46 45 45 44 44 43 43 42 42 42 41 41 40 40 40 40 40 39 38 37 37 37 37 36 36 36 36 36 36 37 37 37 37 37 37 37 37 37 37 37
32 33 33 34 35 35 35 36 36 37 37 37 37 37 38 38 38 39 39 39 40 40 41 41 42 42 43 43 44 44 44 44 44 44 45 45 46 46 47 47 48 48 48 49 48 48 47 47 46 46 45 45 44 43 43 43 42 42 41 41 41 41 41 40 40 39 39 39 39 38 38 38 38 38 38 37 37 37 38 38 37 37 37 37 37
32 33 33 34 35 35 35 35 36 36 37 37 38 38 39 39 40 40 41 41 41 42 42 42 43 43 44 44 45 45 45 45 45 45 46 46 47 47 48 48 49 49 49 49 49 49 49 49 48 48 47 47 46 45 45 44 44 43 43 42 42 42 42 42 41 42 42 42 41 41 40 40 40 40 40 39 39 38 38 38 38 38 38 38 38
31 32 33 33 34 34 35 35 36 36 37 38 38 39 39 40 40 41 42 42 43 43 43 44 44 44 44 45 45 45 46 46 46 47 47 47 48 48 49 50 50 50 50 50 50 50 50 50 50 49 49 49 48 47 47 46 46 45 45 44 44 43 43 43 43 43 43 43 43 43 43 42 42 41 41 41 40 40 40 40 40 40 40 39 39
30 31 32 33 33 34 34 35 35 36 37 37 38 38 39 40 40 41 42 43 44 44 45 45 45 45 45 45 46 46 47 47 48 48 48 49 49 49 50 50 51 51 51 51 51 51 51 51 51 51 51 50 50 49 49 48 47 47 46 46 45 45 45 44 44 44 43 43 43 43 44 44 44 43 43 42 42 41 41 41 41 42 42 41 41
31 31 32 32 32 33 33 33 34 34 35 36 37 37 38 39 40 41 42 43 44 44 45 46 46 47 47 47 47 47 47 48 48 49 49 50 50 51 51 51 51 52 52 52 52 52 52 52 52 52 52 52 51 51 51 50 49 49 48 47 47 46 46 45 45 45 44 44 44 44 44 44 45 45 45 44 44 43 43 43 43 43 44 43 43
32 32 32 32 32 32 32 33 33 34 34 35 36 37 37 38 39 40 41 42 43 44 45 46 46 47 47 47 48 48 48 48 49 50 50 51 51 51 52 52 52 53 53 53 53 53 53 52 52 52 52 52 52 52 52 51 51 50 50 49 49 48 47 47 46 46 45 45 45 45 45 45 45 45 46 45 45 45 45 45 44 44 45 44 44
31 31 31 31 31 32 32 32 33 33 34 35 36 37 37 38 39 40 41 42 43 44 45 45 46 47 47 48 48 49 49 50 50 50 51 51 52 52 53 53 53 54 54 54 54 54 54 53 53 52 52 52 52 52 52 52 52 52 52 52 51 50 49 48 48 47 47 46 45 45 45 45 45 45 46 46 46 46 46 46 45 45 45 45 45
28 28 29 29 30 30 31 31 32 33 34 34 35 36 37 38 39 40 41 42 43 43 44 45 46 47 47 48 49 49 49 50 50 51 51 52 52 52 53 53 54 54 54 54 54 54 54 53 53 52 52 52 52 53 53 53 53 53 53 53 53 52 51 50 49 48 48 47 46 46 46 46 46 46 46 46 46 46 46 46 46 46 46 46 46
26 27 27 28 29 29 30 31 31 32 33 34 35 36 37 38 39 40 41 41 42 42 43 44 44 45 46 47 48 49 49 50 50 51 51 51 51 52 52 53 53 54 54 54 54 54 53 53 53 53 53 52 53 53 53 54 54 54 54 54 54 53 53 52 51 50 49 48 47 46 46 46 46 46 46 46 46 46 46 46 46 46 46 46 45
25 25 25 26 27 27 28 30 31 32 33 34 34 35 36 37 38 39 40 40 41 42 42 43 43 44 45 46 47 48 48 49 50 50 50 50 50 51 51 52 52 53 53 53 53 53 53 53 53 53 53 53 53 53 53 54 54 54 54 54 54 54 54 53 52 51 50 49 48 47 46 46 46 45 45 45 45 45 45 45 45 45 45 45 45
22 23 23 24 25 25 26 27 28 29 30 32 33 34 35 36 37 38 39 40 40 41 42 43 43 44 45 45 46 46 47 47 48 48 48 49 49 49 50 50 51 51 52 52 53 53 53 54 54 54 53 53 53 53 53 53 54 54 54 54 55 55 54 54 53 52 51 50 48 47 46 46 45 45 45 44 44 44 44 44 44 44 44 44 44
Wind_Direction
210 210 209 208 208 207 207 207 208 209 210 210 210 210 211 210 210 210 211 211 210 208 208 208 209 209 208 208 209 210 213 214 213 213 213 214 215 216 218 221 226 230 233 237 239 239 241 243 245 244 244 248 250 252 252 251 252 252 253 256 257 257 256 256 257 259 260 262 266 270 272 276 279 281 285 288 292 293 292 295 298 302 305 309 312
213 213 213 212 211 210 210 209 209 210 211 212 213 213 214 214 213 213 214 215 215 213 213 213 213 213 213 214 214 216 218 219 220 220 220 221 222 222 223 223 229 233 237 240 241 241 242 245 248 247 246 250 254 255 254 252 251 253 254 255 258 261 261 261 262 263 263 264 268 273 275 277 279 281 283 286 290 294 295 296 298 299 302 304 307
217 217 215 215 214 213 213 212 211 212 212 213 214 214 216 216 216 217 217 218 218 218 216 216 217 218 218 218 220 221 223 223 224 224 225 226 227 228 228 227 230 235 240 243 243 243 245 247 250 251 249 252 254 256 257 254 250 252 255 257 259 262 263 263 264 266 267 267 269 273 276 277 279 281 283 286 289 291 294 296 298 299 300 302 305
220 220 217 216 216 216 215 214 213 214 214 214 215 215 217 218 219 220 221 221 221 221 220 220 221 222 223 223 224 226 227 227 228 229 229 229 229 231 232 233 234 236 239 243 244 244 245 247 250 251 252 254 255 257 260 258 254 252 255 259 261 264 265 265 265 266 268 270 272 274 276 278 280 282 285 288 290 291 293 296 299 300 301 303 305
224 222 220 219 218 217 215 214 214 215 216 216 217 217 218 219 220 222 223 224 224 225 224 224 224 225 226 227 228 229 230 230 230 231 232 232 232 233 234 236 238 239 240 242 244 245 246 247 249 250 251 253 256 258 261 262 260 257 257 259 261 263 265 267 267 267 268 270 273 276 278 280 282 284 287 290 292 293 295 297 299 300 303 304 305
228 226 225 224 224 221 217 215 215 216 217 218 219 220 220 221 222 224 225 226 227 227 228 228 228 229 229 230 231 232 233 232 232 233 234 235 235 236 238 239 240 242 243 244 245 247 249 250 251 250 251 253 255 257 259 262 263 263 262 262 263 263 264 266 268 269 270 271 273 276 278 280 282 284 287 289 291 293 295 297 298 301 303 304 304
228 227 227 227 228 226 220 217 217 217 219 220 221 221 222 223 224 225 226 228 228 229 230 230 231 231 232 233 234 235 236 235 235 235 236 237 238 240 241 243 244 245 246 247 247 248 249 250 252 252 252 254 256 258 259 261 262 263 264 266 267 267 267 268 269 270 271 273 275 277 279 280 281 283 286 289 290 292 294 296 297 299 301 302 304
228 227 226 226 227 225 222 221 220 220 220 221 222 223 223 223 224 226 227 228 230 231 231 232 232 233 234 235 236 237 238 238 238 238 239 240 241 242 244 246 248 249 249 250 250 251 251 251 252 252 254 255 257 259 260 260 261 263 264 265 267 268 270 272 272 273 274 275 276 278 279 281 283 284 288 291 291 292 293 294 296 298 299 300 303
226 225 225 225 225 224 224 225 224 223 223 223 223 224 224 224 224 226 228 229 231 232 233 234 234 233 234 235 236 238 239 240 240 240 241 242 244 246 247 248 250 252 253 253 253 253 253 253 254 254 255 256 257 259 259 259 260 262 264 265 266 267 269 271 273 274 275 276 278 279 280 282 284 285 287 289 290 291 293 293 295 297 298 300 302
219 219 219 221 223 224 225 225 225 224 224 224 225 226 225 225 226 228 230 231 232 233 234 235 235 235 235 235 236 237 239 241 241 241 242 244 245 247 249 250 251 253 254 256 256 256 256 256 256 256 256 258 258 259 260 260 260 262 263 265 266 267 268 269 271 273 274 275 278 280 281 282 284 286 287 288 290 291 292 293 295 298 300 300 302
214 218 220 221 223 224 225 224 224 224 224 225 227 228 228 228 230 231 231 232 233 234 235 236 237 237 237 237 237 238 239 241 242 242 243 245 247 248 250 251 253 254 255 256 257 258 259 259 259 259 259 260 260 261 261 262 262 262 263 264 265 266 267 268 270 271 273 274 277 279 280 282 285 288 289 291 292 293 294 295 296 298 299 299 301
219 223 226 227 226 225 225 224 223 224 225 226 229 230 231 232 233 234 235 234 235 236 237 238 238 239 239 239 240 240 241 242 242 243 244 245 247 249 251 252 253 255 256 257 257 258 259 260 261 261 261 261 262 263 264 263 263 263 263 263 264 265 267 268 270 271 273 274 276 277 279 281 284 287 289 291 293 294 295 296 296 297 297 297 298
228 230 231 232 230 227 226 224 224 226 227 229 231 232 233 234 235 236 237 237 237 238 239 240 240 240 240 240 241 242 243 244 244 244 245 245 246 248 250 252 253 254 256 257 258 259 259 260 261 261 262 262 263 264 264 265 264 264 263 264 265 266 266 267 268 270 272 273 274 276 278 280 282 284 288 290 291 293 294 295 295 295 295 295 296
230 232 233 233 233 231 228 226 227 228 230 232 233 233 235 237 238 238 239 239 240 240 240 241 241 241 241 241 242 243 244 245 246 246 247 247 247 248 250 251 252 254 255 257 258 259 259 260 260 261 261 262 263 263 264 265 266 266 266 265 266 266 266 267 267 268 270 271 272 274 277 279 281 284 287 288 288 290 292 293 294 293 293 294 294
232 234 235 237 238 237 234 232 231 231 233 235 236 236 238 240 241 241 240 240 241 242 243 243 243 242 242 242 243 244 245 246 247 248 249 250 250 250 251 252 253 254 255 257 258 259 260 260 259 260 260 261 262 263 264 265 266 267 267 267 267 267 267 268 269 269 270 271 271 274 276 278 280 282 285 286 287 288 290 291 291 292 292 293 292
238 239 240 241 242 241 241 241 239 237 236 237 238 240 242 243 243 243 242 242 242 243 244 245 245 244 243 243 244 246 246 246 247 248 250 251 251 251 251 251 252 253 255 256 258 259 260 260 260 261 261 261 262 262 263 265 265 266 266 267 268 269 269 270 270 271 271 272 273 274 275 277 278 280 282 283 285 287 289 290 290 290 290 291 291
245 245 244 245 245 245 246 247 247 245 243 241 242 243 245 246 246 245 245 245 245 245 246 246 246 245 245 245 246 247 248 248 248 250 251 251 251 251 251 251 252 254 255 256 257 258 259 260 261 262 262 262 263 263 263 264 264 265 266 266 268 268 269 271 271 272 272 272 273 274 275 276 277 278 279 280 282 284 286 287 288 288 288 289 289
249 250 250 250 249 248 249 249 250 249 249 247 247 247 248 249 249 248 248 248 248 248 248 248 247 246 246 247 248 248 249 249 249 250 252 252 251 251 252 252 254 255 257 258 258 259 259 260 260 261 262 263 263 264 264 264 264 264 265 266 266 267 268 270 271 272 272 272 273 274 275 276 277 278 278 279 280 281 283 284 286 286 286 286 286
250 251 253 253 252 251 251 251 252 252 251 252 251 252 252 251 252 252 251 250 251 251 250 249 248 248 248 249 249 250 250 250 250 251 252 252 253 254 253 253 255 256 258 259 260 260 261 261 261 261 262 263 263 264 264 265 265 265 265 265 265 266 268 270 270 271 272 273 273 274 275 276 277 278 278 278 278 279 279 282 283 283 282 283 283
253 253 253 252 253 253 253 254 255 255 254 255 254 254 254 253 254 255 254 252 251 252 251 250 249 249 249 250 251 251 252 252 252 252 252 253 254 255 255 255 256 257 258 260 261 262 262 262 263 263 263 263 263 263 263 264 265 266 266 266 266 266 269 271 271 271 272 272 273 274 275 276 277 277 277 278 278 277 277 279 280 280 280 281 281
254 255 254 252 252 254 255 256 257 256 256 256 256 255 255 255 255 255 256 255 254 253 252 250 249 250 252 252 252 253 253 254 254 254 254 253 253 255 256 257 258 259 259 260 261 262 262 263 263 264 264 264 263 263 263 263 264 266 267 267 267 269 270 272 272 272 272 272 273 273 274 274 275 276 276 277 277 277 278 278 279 279 279 279 279
254 255 255 254 253 255 256 257 258 257 257 258 258 257 256 256 255 254 254 255 255 255 254 252 251 252 253 253 254 254 254 255 255 255 255 254 254 255 256 258 259 260 260 260 261 261 262 263 264 264 264 264 264 264 263 263 264 265 266 267 268 270 271 272 273 273 272 272 273 273 273 274 274 274 275 275 276 277 278 278 278 278 278 278 278
254 254 255 255 256 256 256 258 259 259 259 259 259 258 257 256 255 254 254 255 256 256 256 255 254 254 255 255 255 256 256 256 255 255 256 257 257 257 257 258 259 260 261 261 261 262 262 263 264 265 266 266 266 266 265 265 265 265 266 267 268 269 270 271 272 272 272 272 272 273 274 274 274 275 275 275 275 276 277 277 277 277 277 277 277
254 254 255 256 257 257 257 257 258 259 259 260 259 258 257 256 255 255 254 255 257 258 258 258 257 258 258 258 258 258 259 258 257 257 258 259 260 260 259 258 259 260 261 262 262 262 262 262 263 264 265 265 266 267 267 267 267 267 267 267 267 268 268 269 270 271 271 272 271 272 273 274 274 274 274 275 276 276 277 277 276 276 276 277 276
255 256 256 256 256 256 257 257 258 258 259 259 258 257 257 256 256 256 256 257 258 259 260 261 261 261 261 261 260 260 260 260 260 260 261 261 260 260 260 259 259 259 260 261 262 262 263 263 263 264 265 265 265 266 266 266 266 266 267 267 267 267 267 268 269 270 270 271 271 271 272 273 273 273 274 275 275 276 276 276 276 276 276 276 276
257 256 256 256 256 256 256 257 257 257 257 257 257 257 257 257 257 258 258 259 259 260 261 262 262 262 262 262 262 261 261 261 262 262 262 262 261 260 260 260 261 260 259 260 261 262 263 264 264 264 264 265 265 265 265 266 266 265 266 266 267 267 267 267 268 269 269 270 271 271 271 272 273 273 273 273 273 273 274 275 275 276 275 274 273
258 257 257 257 257 257 257 257 256 256 256 256 256 256 257 258 258 258 259 259 260 260 261 261 262 262 262 262 262 262 262 262 262 263 263 264 264 263 262 261 262 261 260 260 261 262 263 264 265 265 265 265 265 265 266 266 266 265 265 265 266 266 266 267 268 268 269 269 269 269 269 270 271 272 272 272 272 272 272 273 273 273 273 273 271
259 259 258 258 257 257 258 258 257 256 256 256 256 256 257 258 259 259 259 260 260 261 261 261 261 262 262 262 262 262 262 262 262 263 264 265 265 265 264 263 263 262 262 262 262 263 264 265 266 266 266 267 267 267 267 267 267 266 266 266 266 266 266 267 268 269 269 269 268 268 268 268 268 269 270 270 270 270 270 270 271 271 272 272 272
260 259 259 258 257 257 257 258 258 257 257 257 257 257 258 258 259 259 259 259 259 260 260 260 261 261 262 263 263 263 263 262 262 263 264 264 265 265 265 265 264 264 264 264 263 263 264 265 265 266 267 267 268 269 269 269 269 268 268 268 268 267 267 267 268 268 269 268 268 268 267 267 267 268 269 269 268 268 268 269 269 270 271 272 271
260 260 259 259 258 257 257 258 259 258 257 258 258 258 259 259 259 259 259 259 259 258 258 259 260 261 262 262 263 263 263 263 263 264 264 263 263 263 263 264 264 264 265 265 265 264 264 265 265 266 267 267 268 268 269 269 269 269 269 268 268 268 268 268 268 268 268 268 268 268 267 267 267 267 268 268 267 267 267 268 268 268 269 270 270
260 260 260 260 258 258 258 258 259 259 258 258 259 259 260 260 260 260 260 259 259 259 259 259 260 261 262 262 262 262 262 262 263 264 264 264 263 262 262 263 264 264 265 265 265 266 266 266 266 266 267 267 268 269 269 269 269 269 269 269 269 269 269 268 268 267 267 267 267 267 267 266 266 266 266 267 267 267 266 266 266 266 266 267 268
261 261 261 260 259 259 258 259 260 259 259 259 260 260 261 261 261 261 260 260 260 261 261 261 262 262 262 261 261 261 262 263 263 264 264 264 264 263 263 263 263 264 265 265 265 266 266 267 267 267 267 268 268 269 269 269 269 269 269 269 269 269 269 269 268 267 266 266 266 266 266 266 266 266 266 266 267 266 265 265 265 265 265 266 267
261 261 261 261 260 259 259 259 260 260 259 260 260 261 261 261 262 262 261 261 261 261 262 262 263 264 263 263 262 262 262 263 263 264 264 264 264 264 264 264 264 264 264 264 265 266 266 267 267 267 268 268 269 269 269 269 268 268 268 269 269 269 269 270 269 267 266 265 265 265 265 265 266 266 266 267 267 266 265 264 264 264 265 266 267
261 261 261 261 261 260 259 259 259 260 260 260 260 261 262 262 262 263 263 263 263 263 263 263 263 263 263 264 263 263 262 262 263 263 263 263 263 263 264 265 265 265 265 265 266 266 266 266 267 267 268 269 269 269 269 269 267 267 266 267 268 269 269 269 269 268 266 265 265 265 264 264 265 265 266 267 267 267 265 264 264 264 265 266 267
262 261 262 261 261 260 260 260 260 260 260 261 261 262 263 263 263 263 264 264 265 265 265 264 264 264 264 263 263 263 263 264 264 264 264 264 264 264 264 264 265 266 266 266 267 267 267 267 267 267 268 269 270 270 269 269 268 267 266 266 267 267 268 268 268 268 267 266 266 265 265 264 264 264 265 266 267 267 266 264 264 265 265 267 268
262 261 261 261 260 260 260 261 261 261 261 261 262 262 263 263 263 264 264 265 265 266 266 266 265 265 265 264 262 263 263 264 264 264 264 264 264 265 265 264 265 265 266 267 267 268 268 268 267 267 267 268 269 269 269 268 267 267 267 267 267 267 267 266 266 266 266 266 266 266 266 265 264 264 264 265 265 265 264 264 264 265 266 267 268
261 260 260 260 260 261 261 261 261 262 262 262 263 263 263 264 264 264 265 265 266 266 266 266 267 267 266 265 264 264 264 264 264 264 263 264 264 264 264 264 265 265 265 266 266 267 267 268 268 268 268 267 268 268 268 268 267 267 266 267 267 267 267 267 266 265 265 265 265 264 264 264 265 265 265 265 264 264 265 265 264 264 266 267 269
261 260 260 261 261 261 261 261 261 262 262 263 263 264 264 265 265 265 265 266 266 266 267 267 267 267 267 267 266 266 266 266 265 264 264 264 264 264 264 264 265 265 265 265 265 266 266 267 267 267 268 267 267 267 267 267 267 267 267 266 266 266 267 267 267 266 265 264 264 263 262 262 263 264 265 265 265 265 265 265 264 264 266 267 268
262 261 261 261 261 261 261 262 262 262 263 263 264 264 265 265 265 266 266 266 267 267 267 267 267 267 267 268 268 268 267 267 266 266 265 265 265 264 264 264 265 265 265 265 265 265 265 266 266 267 267 267 267 266 266 266 266 266 267 267 266 266 266 266 266 267 267 266 265 264 263 262 263 264 265 266 266 266 264 263 263 264 265 266 268
262 262 262 262 262 261 262 262 262 263 263 264 264 265 265 266 266 267 267 267 267 267 267 267 267 267 268 268 268 268 268 268 267 266 266 266 265 265 266 265 265 265 265 265 265 265 265 265 265 266 266 266 266 266 265 265 265 265 265 265 265 265 265 265 265 266 266 266 267 266 266 265 265 265 266 266 267 266 264 263 263 263 264 265 268
262 263 263 263 263 263 263 263 263 263 263 264 264 265 265 266 267 267 268 268 268 268 268 268 268 268 269 269 269 268 268 268 268 267 267 266 266 266 266 266 266 266 265 264 264 264 265 265 265 265 265 265 265 265 265 264 264 264 265 265 265 264 264 264 265 265 265 265 266 267 267 267 266 266 266 267 267 266 265 264 263 263 264 265 266
263 263 263 264 264 264 264 264 264 264 265 265 265 265 266 266 267 268 269 269 269 269 269 269 269 269 269 270 269 268 268 268 268 268 268 267 266 266 266 266 266 266 265 265 264 264 264 264 264 264 264 264 264 264 264 264 264 264 264 264 264 264 264 264 264 265 265 265 265 265 266 267 267 267 266 266 266 266 265 263 262 262 262 264 265
263 263 264 264 264 264 264 264 265 265 266 266 266 267 267 268 268 269 269 269 270 270 270 270 270 270 270 270 270 269 268 269 268 268 268 268 267 267 266 266 266 266 266 265 265 264 263 263 263 263 263 263 263 263 263 263 263 263 264 264 264 264 264 265 265 265 265 265 264 264 264 265 266 267 267 266 266 266 265 264 262 261 262 262 264
264 264 265 265 265 265 265 265 266 266 266 267 267 268 268 269 269 270 270 270 270 270 270 270 270 270 270 270 270 270 269 269 269 269 269 268 268 267 267 266 265 265 266 266 266 265 264 263 263 262 262 262 262 262 262 262 262 262 262 263 263 263 264 265 265 265 265 265 265 265 264 264 264 265 266 266 266 267 266 265 264 264 263 263 264
264 265 266 266 266 266 267 267 267 267 268 268 268 269 269 270 271 271 272 272 271 271 271 271 271 271 271 271 271 270 270 270 270 270 269 269 268 268 267 266 266 265 265 266 266 265 265 264 263 262 262 261 261 261 262 262 261 261 261 261 262 262 263 264 264 265 265 265 265 265 265 265 264 264 264 265 265 265 266 265 265 265 265 265 265
265 265 266 266 266 266 267 268 269 269 269 270 270 271 271 272 272 273 273 273 273 273 272 272 272 272 271 271 271 271 271 271 270 270 270 269 269 268 267 267 266 266 265 265 265 265 265 264 263 262 262 261 261 261 261 261 261 261 260 260 261 261 262 263 263 263 264 264 264 264 265 265 265 265 264 264 264 264 264 264 265 265 265 265 266
265 266 266 266 266 267 268 269 270 271 271 272 273 273 274 274 274 274 274 274 274 274 274 273 273 272 272 272 272 272 271 271 271 271 271 270 269 268 267 267 266 266 265 265 264 264 264 263 263 262 262 261 261 261 261 261 261 261 261 261 261 261 261 262 262 262 262 263 263 263 264 264 264 264 264 264 264 264 264 264 264 264 265 265 265
265 266 266 267 267 268 269 270 271 273 274 274 275 275 275 275 275 276 276 276 276 275 275 275 274 274 273 273 273 272 272 272 272 272 271 271 270 268 267 266 266 265 265 264 264 263 263 263 262 262 261 261 260 260 260 261 261 261 261 261 260 260 261 261 261 261 261 262 262 262 263 263 264 264 264 264 264 263 263 263 263 264 264 264 265
265 266 267 267 268 269 270 271 272 273 274 275 276 276 276 276 276 276 277 277 277 277 276 276 276 275 274 274 273 273 272 272 272 272 271 270 269 268 267 266 265 265 264 263 263 262 262 262 261 261 261 261 261 260 260 260 260 261 261 260 260 260 261 261 260 260 260 260 261 261 262 263 263 264 264 264 264 264 263 263 263 264 264 264 264
265 266 267 268 269 270 271 272 273 274 275 276 277 277 278 278 278 278 278 278 278 277 277 277 277 276 275 275 274 273 273 272 272 271 271 270 269 268 267 267 266 264 263 263 262 262 261 261 261 261 261 261 261 260 260 260 260 260 260 260 260 260 260 260 260 260 259 259 259 260 261 261 262 263 263 264 264 264 264 264 264 264 264 264 264
266 267 268 269 271 272 274 275 277 277 278 279 280 280 281 281 280 280 280 279 279 279 278 278 278 277 276 275 275 274 273 273 272 271 271 270 269 269 268 267 266 265 264 263 262 261 261 260 260 260 260 260 260 260 260 260 259 259 259 259 259 259 259 259 259 259 259 259 258 259 259 260 261 261 262 263 264 264 265 265 265 265 265 264 264